Regional Weather Roundup
Issued by NWS

Home | Current Version | Previous Version | Graphics & Text | Print | Product List | Glossary On
Versions: 1 2 3 4 5 6 7 8 9 10 11 12 13 14 15 16 17 18 19 20 21 22 23 24 25 26 27 28 29 30 31 32 33 34 35 36 37 38 39 40 41 42 43 44 45 46 47 48 49 50
000
ASUS43 KMKX 030900
RWRWI

WISCONSIN REGIONAL WEATHER ROUNDUP
NATIONAL WEATHER SERVICE MILWAUKEE/SULLIVAN WI
400 AM CDT TUE MAY 03 2016

NOTE: "FAIR" INDICATES FEW OR NO CLOUDS BELOW 12,000 FEET WITH NO
SIGNIFICANT WEATHER AND/OR OBSTRUCTIONS TO VISIBILITY.

WIZ001-002-006>008-014>016-023>028-031000-
NORTHWEST WISCONSIN

CITY           SKY/WX    TMP DP  RH WIND       PRES   REMARKS
SUPERIOR ARPT  CLEAR     39  33  78 SW8       29.87F WCI  33
ASHLAND        CLEAR     47  33  58 SW10      29.87F
HAYWARD        CLEAR     35  30  82 CALM      29.91F
SIREN          CLEAR     48  32  54 SW6       29.93S
CUMBERLAND     CLEAR     41  32  70 W6        29.94S
RICE LAKE      CLEAR     40  37  89 CALM      29.95S
CHETEK         CLEAR     38  34  86 SW5       29.94F WCI  34
LADYSMITH      CLEAR     37  35  92 CALM      29.94F
EAU CLAIRE     NOT AVBL
MENOMONIE      CLEAR     39  31  74 CALM      29.96S
NEW RICHMOND   CLEAR     41  36  81 CALM      29.96S
OSCEOLA        CLEAR     39  39 100 CALM      29.98S
$$

WIZ003>005-009-010-017-018-031000-
NORTH CENTRAL WISCONSIN

CITY           SKY/WX    TMP DP  RH WIND       PRES   REMARKS
MANITOWISH WTR   N/A     31  31 100 CALM      29.89F FOG
ARBOR VITAE    CLEAR     37  33  88 CALM      29.90F
WOODRUFF       CLEAR     37  33  88 CALM      29.90F
RHINELANDER    CLEAR     34  31  88 W3        29.91F
EAGLE RIVER    CLEAR     32  32  99 CALM      29.89F
LAND O LAKES   MOCLDY    32  31  98 CALM      29.90F
PHILLIPS       CLEAR     35  33  96 CALM      29.91F
TOMAHAWK       CLEAR     32  30  93 CALM      29.92S
MEDFORD        CLEAR     45  34  65 W3        29.93S
MERRILL        CLEAR     34  32  94 CALM      29.93F
$$

WIZ029-030-035-036-043>047-031000-
CENTRAL WISCONSIN

CITY           SKY/WX    TMP DP  RH WIND       PRES   REMARKS
WAUSAU         CLEAR     46  35  65 CALM      29.91F
MOSINEE        CLEAR     45  34  65 W6        29.94S
MARSHFIELD     CLEAR     45  34  65 W7        29.93S
STEVENS POINT  CLEAR     34  31  90 CALM      29.95S
WAUPACA        CLEAR     41  35  77 CALM      29.94S
WAUTOMA        CLEAR     35  32  88 CALM      29.96S
WISC RAPIDS    CLEAR     37  33  85 CALM      29.95F
CAMP DOUGLAS   NOT AVBL
$$

WIZ011>013-019>022-031-037>040-048>050-031000-
NORTHEAST WISCONSIN

CITY           SKY/WX    TMP DP  RH WIND       PRES   REMARKS
ANTIGO         CLEAR     37  33  85 CALM      29.92S
SHAWANO        CLEAR     45  36  71 CALM      29.92F
OCONTO         CLEAR     37  37 100 CALM      29.91S
STURGEON BAY   CLEAR     45  32  61 S9        29.93F
GREEN BAY      CLEAR     46  37  71 SW5       29.92F
MANITOWOC      NOT AVBL
APPLETON       CLEAR     43  34  70 SW8       29.92F
CLINTONVILLE   CLEAR     43  32  65 SW3       29.92F
OSHKOSH        CLEAR     47  35  63 SW7       29.93F
$$

WIZ032>034-041-042-053>061-031000-
SOUTHWEST WISCONSIN

CITY           SKY/WX    TMP DP  RH WIND       PRES   REMARKS
LA CROSSE      CLEAR     46  40  79 S5        29.97S
SPARTA         CLEAR     33  32  96 CALM      29.98S
VIROQUA        CLEAR     46  37  70 W6        29.98S
BOSCOBEL       CLEAR     40  38  93 SW5       29.99S
PRAIRIE DU CHI PTCLDY    47  38  68 N3        30.00R
PLATTEVILLE    CLEAR     44  40  85 W6        29.99S
$$

WIZ056-057-062-063-064-067-068-031000-
SOUTH CENTRAL WISCONSIN

CITY           SKY/WX    TMP DP  RH WIND       PRES   REMARKS
REEDSBURG      PTCLDY    38  38 100 CALM      29.96F
BARABOO/DELLS  PTCLDY    40  37  89 CALM      29.96S
LONE ROCK      NOT AVBL
MINERAL POINT  CLEAR     45  37  76 W5        29.98S
MADISON        PTCLDY    39  36  89 CALM      29.96F
MIDDLETON      PTCLDY    38  37  93 CALM      29.97S
WATERTOWN      CLEAR     36  35  97 CALM      29.96S
MONROE         CLEAR     45  36  70 SW9       29.97F
JANESVILLE     CLEAR     39  37  93 CALM      29.97F
$$

WIZ051-052-058>065-066-070>072-031000-
SOUTHEAST WISCONSIN

CITY           SKY/WX    TMP DP  RH WIND       PRES   REMARKS
MILWAUKEE      MOCLDY    42  32  67 CALM      29.97S
WAUKESHA       CLEAR     36  32  87 CALM      29.98S
MILWAUKEE/TIMM CLEAR     41  32  70 CALM      29.98S
RACINE         MOCLDY    43  32  65 W8        29.98F
BURLINGTON     CLOUDY    34  34  98 CALM      29.97F
KENOSHA        PTCLDY    39  34  82 W6        29.97F WCI  35
FOND DU LAC    CLEAR     46  34  62 SW8       29.95S
SHEBOYGAN      CLEAR     40  33  76 W7        29.95F
WEST BEND      CLEAR     37  32  81 CALM      29.96F
JUNEAU         CLEAR     42  33  70 S5        29.97S
$$

LSZ147-162-031000-
LAKE SUPERIOR

STATION/POSITION TIME  TEMP    WIND        PRES    WAVE
                       AIR SEA DIR/SP/G            HT/PER
                 (UTC) (F)     (DEG/KT/KT) (MB)    (FT/S)
W MID LAKE BUOY  0750   39 37  240/  4/  4 1011.7F   0
DEVILS ISLAND    0800   40     230/ 13/ 14 1011.6F
SAXON HARBOR     0800   38     190/  4/  6 1011.2F
$$

LMZ867-665-643>646-031000-
LAKE MICHIGAN

STATION/POSITION TIME  TEMP    WIND        PRES    WAVE
                       AIR SEA DIR/SP/G            HT/PER
                 (UTC) (F)     (DEG/KT/KT) (MB)    (FT/S)
CHAMBERS ISLAND  0800   48     180/  4/  9 1012.9F
N MID LAKE BUOY  0750   41 38  180/  6/  6 1013.2F   0
NORTHPORT PIER   0800   44     180/  2/  4 1012.9F
ALGOMA LAKESHORE 0800             CALM       N/A
KEWAUNEE LAKESHO 0800   43     300/  3/  4 1013.0F
SHEBOYGAN LAKESH 0800   47     240/  8/  9 1015.0F
PORT WASHINGTON  0800   45     270/  5/  6 1015.2
S MID LAKE BUOY  0750   41 41  260/  4/  4 1015.0F   1
KENOSHA   LAKESH 0800   46     270/  9/ 10 1014.9F
$$

TC  - TEMPERATURE IN CELSIUS
VSB - VISIBILITY IN STATUTE MILES
WCI - WIND CHILL INDEX
HX  - HEAT INDEX




USA.gov is the U.S. government's official web portal to all federal, state and local government web resources and services.